Satellite-Ground Cal/Val Region Overpasses Predictions

Prediction of Satellite NPP Overpassing Cal/Val Region: PacNW

Region Location: (Latitude: 10.00, Longitude: 139.50) to (Latitude: 22.70, Longitude: 165.60).

Table of predicted overpasses for the next 14.0 days since TLE Epoch: 4/22/2023
Interval Starting Time Starting Location Ending Time Ending Location
1 04/22/2023 03:00:39 ( 10.05, 155.17) 04/22/2023 03:04:14 ( 22.67, 152.18)
2 04/22/2023 15:32:31 ( 22.69, 152.40) 04/22/2023 15:36:07 ( 10.00, 149.39)
3 04/23/2023 02:41:36 ( 10.02, 159.94) 04/23/2023 02:45:11 ( 22.64, 156.94)
4 04/23/2023 15:13:29 ( 22.66, 157.15) 04/23/2023 15:17:04 ( 10.03, 154.16)
5 04/24/2023 02:22:34 ( 10.05, 164.69) 04/24/2023 02:26:09 ( 22.67, 161.69)
6 04/24/2023 14:54:25 ( 22.68, 161.92) 04/24/2023 14:58:01 ( 10.00, 158.91)
7 04/25/2023 03:45:00 ( 10.03, 144.08) 04/25/2023 03:48:35 ( 22.66, 141.08)
8 04/25/2023 14:36:38 ( 18.25, 165.59) 04/25/2023 14:38:58 ( 10.03, 163.67)
9 04/25/2023 16:16:52 ( 22.70, 141.31) 04/25/2023 16:18:59 ( 15.25, 139.50)
10 04/26/2023 03:25:57 ( 10.01, 148.84) 04/26/2023 03:29:33 ( 22.69, 145.83)
11 04/26/2023 15:57:49 ( 22.66, 146.06) 04/26/2023 16:01:24 ( 10.04, 143.06)
12 04/27/2023 03:06:54 ( 10.05, 153.60) 04/27/2023 03:10:29 ( 22.67, 150.60)
13 04/27/2023 15:38:46 ( 22.69, 150.82) 04/27/2023 15:42:22 ( 10.01, 147.81)
14 04/28/2023 02:47:51 ( 10.02, 158.36) 04/28/2023 02:51:26 ( 22.65, 155.36)
15 04/28/2023 15:19:43 ( 22.65, 155.57) 04/28/2023 15:23:18 ( 10.03, 152.58)
16 04/29/2023 02:28:47 ( 10.00, 163.12) 04/29/2023 02:32:23 ( 22.69, 160.11)
17 04/29/2023 15:00:40 ( 22.67, 160.34) 04/29/2023 15:04:15 ( 10.05, 157.34)
18 04/30/2023 02:12:31 ( 19.79, 165.59) 04/30/2023 02:13:20 ( 22.67, 164.88)
19 04/30/2023 03:51:15 ( 10.06, 142.50) 04/30/2023 03:54:50 ( 22.68, 139.50)
20 04/30/2023 14:41:37 ( 22.69, 165.10) 04/30/2023 14:45:13 ( 10.01, 162.09)
21 04/30/2023 16:23:06 ( 22.68, 139.72) 04/30/2023 16:23:21 ( 21.80, 139.51)
22 05/01/2023 03:32:11 ( 10.04, 147.26) 05/01/2023 03:35:46 ( 22.66, 144.27)
23 05/01/2023 16:04:03 ( 22.69, 144.49) 05/01/2023 16:07:39 ( 10.01, 141.48)
24 05/02/2023 03:13:08 ( 10.02, 152.03) 05/02/2023 03:16:43 ( 22.65, 149.03)
25 05/02/2023 15:45:01 ( 22.65, 149.24) 05/02/2023 15:48:36 ( 10.03, 146.24)
26 05/03/2023 02:54:04 ( 10.01, 156.79) 05/03/2023 02:57:40 ( 22.69, 153.78)
27 05/03/2023 15:25:57 ( 22.66, 154.00) 05/03/2023 15:29:32 ( 10.04, 151.01)
28 05/04/2023 02:35:02 ( 10.06, 161.54) 05/04/2023 02:38:37 ( 22.68, 158.54)
29 05/04/2023 15:06:54 ( 22.67, 158.76) 05/04/2023 15:10:29 ( 10.05, 155.77)
30 05/05/2023 02:16:50 ( 13.10, 165.60) 05/05/2023 02:19:33 ( 22.67, 163.31)
31 05/05/2023 03:57:27 ( 10.00, 140.94) 05/05/2023 03:59:12 ( 16.17, 139.51)
